Year,Month,Day,Hour,Minute,Value (Times are PST for windgust in km/hr)
2010,06,02,00,00,19.30
2010,06,02,00,01,24.20
2010,06,02,00,02,24.20
2010,06,02,00,03,25.70
2010,06,02,00,04,16.10
2010,06,02,00,05,19.30
2010,06,02,00,06,20.90
2010,06,02,00,07,20.90
2010,06,02,00,08,20.90
2010,06,02,00,09,19.30
2010,06,02,00,10,32.20
2010,06,02,00,11,24.20
2010,06,02,00,12,24.20
2010,06,02,00,13,25.70
2010,06,02,00,14,22.50
2010,06,02,00,15,24.20
2010,06,02,00,16,17.70
2010,06,02,00,17,29.00
2010,06,02,00,18,24.20
2010,06,02,00,19,25.70
2010,06,02,00,20,24.20
2010,06,02,00,21,19.30
2010,06,02,00,22,24.20
2010,06,02,00,23,22.50
2010,06,02,00,24,20.90
2010,06,02,00,25,22.50
2010,06,02,00,26,24.20
2010,06,02,00,27,27.40
2010,06,02,00,28,20.90
2010,06,02,00,29,24.20
2010,06,02,00,30,20.90
2010,06,02,00,31,19.30
2010,06,02,00,32,16.10
2010,06,02,00,33,20.90
2010,06,02,00,34,17.70
2010,06,02,00,35,22.50
2010,06,02,00,36,22.50
2010,06,02,00,37,17.70
2010,06,02,00,38,24.20
2010,06,02,00,39,17.70
2010,06,02,00,40,20.90
2010,06,02,00,41,19.30
2010,06,02,00,42,14.50
2010,06,02,00,43,17.70
2010,06,02,00,44,16.10
2010,06,02,00,45,17.70
2010,06,02,00,46,17.70
2010,06,02,00,47,22.50
2010,06,02,00,48,20.90
2010,06,02,00,49,17.70
2010,06,02,00,50,20.90
2010,06,02,00,51,22.50
2010,06,02,00,52,22.50
2010,06,02,00,53,20.90
2010,06,02,00,54,22.50
2010,06,02,00,55,16.10
2010,06,02,00,56,24.20
2010,06,02,00,57,24.20
2010,06,02,00,58,16.10
2010,06,02,00,59,14.50
2010,06,02,01,00,24.20
2010,06,02,01,01,25.70
2010,06,02,01,02,20.90
2010,06,02,01,03,17.70
2010,06,02,01,04,20.90
2010,06,02,01,05,22.50
2010,06,02,01,06,30.60
2010,06,02,01,07,27.40
2010,06,02,01,08,27.40
2010,06,02,01,09,22.50
2010,06,02,01,10,22.50
2010,06,02,01,11,17.70
2010,06,02,01,12,19.30
2010,06,02,01,13,22.50
2010,06,02,01,14,20.90
2010,06,02,01,15,24.20
2010,06,02,01,16,9.60
2010,06,02,01,17,20.90
2010,06,02,01,18,16.10
2010,06,02,01,19,25.70
2010,06,02,01,20,24.20
2010,06,02,01,21,24.20
2010,06,02,01,22,22.50
2010,06,02,01,23,17.70
2010,06,02,01,24,9.60
2010,06,02,01,25,20.90
2010,06,02,01,26,22.50
2010,06,02,01,27,16.10
2010,06,02,01,28,24.20
2010,06,02,01,29,11.30
2010,06,02,01,30,11.30
2010,06,02,01,31,9.60
2010,06,02,01,32,19.30
2010,06,02,01,33,19.30
2010,06,02,01,34,19.30
2010,06,02,01,35,16.10
2010,06,02,01,36,19.30
2010,06,02,01,37,24.20
2010,06,02,01,38,16.10
2010,06,02,01,39,14.50
2010,06,02,01,40,16.10
2010,06,02,01,41,14.50
2010,06,02,01,42,11.30
2010,06,02,01,43,9.60
2010,06,02,01,44,17.70
2010,06,02,01,45,22.50
2010,06,02,01,46,24.20
2010,06,02,01,47,17.70
2010,06,02,01,48,17.70
2010,06,02,01,49,12.90
2010,06,02,01,50,16.10
2010,06,02,01,51,20.90
2010,06,02,01,52,16.10
2010,06,02,01,53,19.30
2010,06,02,01,54,22.50
2010,06,02,01,55,16.10
2010,06,02,01,56,14.50
2010,06,02,01,57,17.70
2010,06,02,01,58,19.30
2010,06,02,01,59,20.90
2010,06,02,02,00,16.10
2010,06,02,02,01,20.90
2010,06,02,02,02,20.90
2010,06,02,02,03,22.50
2010,06,02,02,04,16.10
2010,06,02,02,05,17.70
2010,06,02,02,06,17.70
2010,06,02,02,07,27.40
2010,06,02,02,08,19.30
2010,06,02,02,09,19.30
2010,06,02,02,10,16.10
2010,06,02,02,11,27.40
2010,06,02,02,12,25.70
2010,06,02,02,13,22.50
2010,06,02,02,14,20.90
2010,06,02,02,15,19.30
2010,06,02,02,16,17.70
2010,06,02,02,17,20.90
2010,06,02,02,18,16.10
2010,06,02,02,19,20.90
2010,06,02,02,20,20.90
2010,06,02,02,21,25.70
2010,06,02,02,22,16.10
2010,06,02,02,23,20.90
2010,06,02,02,24,17.70
2010,06,02,02,25,16.10
2010,06,02,02,26,17.70
2010,06,02,02,27,19.30
2010,06,02,02,28,25.70
2010,06,02,02,29,20.90
2010,06,02,02,30,16.10
2010,06,02,02,31,16.10
2010,06,02,02,32,20.90
2010,06,02,02,33,19.30
2010,06,02,02,34,22.50
2010,06,02,02,35,17.70
2010,06,02,02,36,29.00
2010,06,02,02,37,19.30
2010,06,02,02,38,20.90
2010,06,02,02,39,22.50
2010,06,02,02,40,24.20
2010,06,02,02,41,22.50
2010,06,02,02,42,24.20
2010,06,02,02,43,22.50
2010,06,02,02,44,20.90
2010,06,02,02,45,19.30
2010,06,02,02,46,20.90
2010,06,02,02,47,20.90
2010,06,02,02,48,17.70
2010,06,02,02,49,24.20
2010,06,02,02,50,17.70
2010,06,02,02,51,17.70
2010,06,02,02,52,17.70
2010,06,02,02,53,17.70
2010,06,02,02,54,17.70
2010,06,02,02,55,17.70
2010,06,02,02,56,19.30
2010,06,02,02,57,19.30
2010,06,02,02,58,17.70
2010,06,02,02,59,16.10
2010,06,02,03,00,16.10
2010,06,02,03,01,11.30
2010,06,02,03,02,14.50
2010,06,02,03,03,11.30
2010,06,02,03,04,12.90
2010,06,02,03,05,12.90
2010,06,02,03,06,16.10
2010,06,02,03,07,14.50
2010,06,02,03,08,14.50
2010,06,02,03,09,11.30
2010,06,02,03,10,14.50
2010,06,02,03,11,11.30
2010,06,02,03,12,9.60
2010,06,02,03,13,11.30
2010,06,02,03,14,11.30
2010,06,02,03,15,9.60
2010,06,02,03,16,9.60
2010,06,02,03,17,8.10
2010,06,02,03,18,6.40
2010,06,02,03,19,9.60
2010,06,02,03,20,11.30
2010,06,02,03,21,6.40
2010,06,02,03,22,12.90
2010,06,02,03,23,9.60
2010,06,02,03,24,11.30
2010,06,02,03,25,8.10
2010,06,02,03,26,8.10
2010,06,02,03,27,8.10
2010,06,02,03,28,16.10
2010,06,02,03,29,16.10
2010,06,02,03,30,11.30
2010,06,02,03,31,8.10
2010,06,02,03,32,9.60
2010,06,02,03,33,11.30
2010,06,02,03,34,14.50
2010,06,02,03,35,11.30
2010,06,02,03,36,16.10
2010,06,02,03,37,17.70
2010,06,02,03,38,16.10
2010,06,02,03,39,16.10
2010,06,02,03,40,14.50
2010,06,02,03,41,14.50
2010,06,02,03,42,14.50
2010,06,02,03,43,11.30
2010,06,02,03,44,16.10
2010,06,02,03,45,11.30
2010,06,02,03,46,17.70
2010,06,02,03,47,14.50
2010,06,02,03,48,12.90
2010,06,02,03,49,19.30
2010,06,02,03,50,17.70
2010,06,02,03,51,19.30
2010,06,02,03,52,19.30
2010,06,02,03,53,16.10
2010,06,02,03,54,16.10
2010,06,02,03,55,19.30
2010,06,02,03,56,19.30
2010,06,02,03,57,22.50
2010,06,02,03,58,19.30
2010,06,02,03,59,19.30
2010,06,02,04,00,19.30
2010,06,02,04,01,20.90
2010,06,02,04,02,24.20
2010,06,02,04,03,20.90
2010,06,02,04,04,20.90
2010,06,02,04,05,25.70
2010,06,02,04,06,25.70
2010,06,02,04,07,17.70
2010,06,02,04,08,17.70
2010,06,02,04,09,17.70
2010,06,02,04,10,20.90
2010,06,02,04,11,17.70
2010,06,02,04,12,17.70
2010,06,02,04,13,20.90
2010,06,02,04,14,19.30
2010,06,02,04,15,14.50
2010,06,02,04,16,19.30
2010,06,02,04,17,11.30
2010,06,02,04,18,17.70
2010,06,02,04,19,11.30
2010,06,02,04,20,16.10
2010,06,02,04,21,19.30
2010,06,02,04,22,16.10
2010,06,02,04,23,16.10
2010,06,02,04,24,11.30
2010,06,02,04,25,14.50
2010,06,02,04,26,14.50
2010,06,02,04,27,16.10
2010,06,02,04,28,16.10
2010,06,02,04,29,17.70
2010,06,02,04,30,16.10
2010,06,02,04,31,16.10
2010,06,02,04,32,12.90
2010,06,02,04,33,9.60
2010,06,02,04,34,9.60
2010,06,02,04,35,11.30
2010,06,02,04,36,11.30
2010,06,02,04,37,14.50
2010,06,02,04,38,8.10
2010,06,02,04,39,9.60
2010,06,02,04,40,17.70
2010,06,02,04,41,11.30
2010,06,02,04,42,11.30
2010,06,02,04,43,12.90
2010,06,02,04,44,17.70
2010,06,02,04,45,20.90
2010,06,02,04,46,20.90
2010,06,02,04,47,16.10
2010,06,02,04,48,17.70
2010,06,02,04,49,16.10
2010,06,02,04,50,14.50
2010,06,02,04,51,14.50
2010,06,02,04,52,17.70
2010,06,02,04,53,24.20
2010,06,02,04,54,24.20
2010,06,02,04,55,16.10
2010,06,02,04,56,16.10
2010,06,02,04,57,14.50
2010,06,02,04,58,11.30
2010,06,02,04,59,17.70
2010,06,02,05,00,11.30
2010,06,02,05,01,16.10
2010,06,02,05,02,27.40
2010,06,02,05,03,20.90
2010,06,02,05,04,14.50
2010,06,02,05,05,16.10
2010,06,02,05,06,19.30
2010,06,02,05,07,17.70
2010,06,02,05,08,16.10
2010,06,02,05,09,11.30
2010,06,02,05,10,11.30
2010,06,02,05,11,16.10
2010,06,02,05,12,16.10
2010,06,02,05,13,14.50
2010,06,02,05,14,14.50
2010,06,02,05,15,16.10
2010,06,02,05,16,12.90
2010,06,02,05,17,20.90
2010,06,02,05,18,16.10
2010,06,02,05,19,9.60
2010,06,02,05,20,20.90
2010,06,02,05,21,14.50
2010,06,02,05,22,17.70
2010,06,02,05,23,11.30
2010,06,02,05,24,11.30
2010,06,02,05,25,19.30
2010,06,02,05,26,22.50
2010,06,02,05,27,20.90
2010,06,02,05,28,14.50
2010,06,02,05,29,25.70
2010,06,02,05,30,22.50
2010,06,02,05,31,16.10
2010,06,02,05,32,16.10
2010,06,02,05,33,17.70
2010,06,02,05,34,22.50
2010,06,02,05,35,16.10
2010,06,02,05,36,19.30
2010,06,02,05,37,20.90
2010,06,02,05,38,16.10
2010,06,02,05,39,19.30
2010,06,02,05,40,20.90
2010,06,02,05,41,20.90
2010,06,02,05,42,25.70
2010,06,02,05,43,17.70
2010,06,02,05,44,20.90
2010,06,02,05,45,20.90
2010,06,02,05,46,17.70
2010,06,02,05,47,27.40
2010,06,02,05,48,19.30
2010,06,02,05,49,19.30
2010,06,02,05,50,16.10
2010,06,02,05,51,14.50
2010,06,02,05,52,19.30
2010,06,02,05,53,17.70
2010,06,02,05,54,24.20
2010,06,02,05,55,24.20
2010,06,02,05,56,17.70
2010,06,02,05,57,17.70
2010,06,02,05,58,25.70
2010,06,02,05,59,20.90
2010,06,02,06,00,19.30
2010,06,02,06,01,19.30
2010,06,02,06,02,19.30
2010,06,02,06,03,20.90
2010,06,02,06,04,16.10
2010,06,02,06,05,14.50
2010,06,02,06,06,17.70
2010,06,02,06,07,16.10
2010,06,02,06,08,12.90
2010,06,02,06,09,16.10
2010,06,02,06,10,17.70
2010,06,02,06,11,22.50
2010,06,02,06,12,17.70
2010,06,02,06,13,16.10
2010,06,02,06,14,19.30
2010,06,02,06,15,14.50
2010,06,02,06,16,17.70
2010,06,02,06,17,17.70
2010,06,02,06,18,17.70
2010,06,02,06,19,24.20
2010,06,02,06,20,16.10
2010,06,02,06,21,20.90
2010,06,02,06,22,16.10
2010,06,02,06,23,16.10
2010,06,02,06,24,17.70
2010,06,02,06,25,22.50
2010,06,02,06,26,17.70
2010,06,02,06,27,14.50
2010,06,02,06,28,19.30
2010,06,02,06,29,17.70
2010,06,02,06,30,19.30
2010,06,02,06,31,14.50
2010,06,02,06,32,22.50
2010,06,02,06,33,25.70
2010,06,02,06,34,19.30
2010,06,02,06,35,17.70
2010,06,02,06,36,20.90
2010,06,02,06,37,17.70
2010,06,02,06,38,20.90
2010,06,02,06,39,17.70
2010,06,02,06,40,17.70
2010,06,02,06,41,19.30
2010,06,02,06,42,19.30
2010,06,02,06,43,20.90
2010,06,02,06,44,22.50
2010,06,02,06,45,24.20
2010,06,02,06,46,8.10
2010,06,02,06,47,16.10
2010,06,02,06,48,24.20
2010,06,02,06,49,22.50
2010,06,02,06,50,17.70
2010,06,02,06,51,19.30
2010,06,02,06,52,24.20
2010,06,02,06,53,11.30
2010,06,02,06,54,11.30
2010,06,02,06,55,20.90
2010,06,02,06,56,11.30
2010,06,02,06,57,19.30
2010,06,02,06,58,22.50
2010,06,02,06,59,17.70
2010,06,02,07,00,17.70
2010,06,02,07,01,16.10
2010,06,02,07,02,14.50
2010,06,02,07,03,11.30
2010,06,02,07,04,8.10
2010,06,02,07,05,14.50
2010,06,02,07,06,8.10
2010,06,02,07,07,8.10
2010,06,02,07,08,9.60
2010,06,02,07,09,8.10
2010,06,02,07,10,19.30
2010,06,02,07,11,11.30
2010,06,02,07,12,9.60
2010,06,02,07,13,8.10
2010,06,02,07,14,11.30
2010,06,02,07,15,16.10
2010,06,02,07,16,17.70
2010,06,02,07,17,14.50
2010,06,02,07,18,6.40
2010,06,02,07,19,11.30
2010,06,02,07,20,8.10
2010,06,02,07,21,11.30
2010,06,02,07,22,9.60
2010,06,02,07,23,11.30
2010,06,02,07,24,11.30
2010,06,02,07,25,8.10
2010,06,02,07,26,6.40
2010,06,02,07,27,3.20
2010,06,02,07,28,4.80
2010,06,02,07,29,4.80
2010,06,02,07,30,11.30
2010,06,02,07,31,6.40
2010,06,02,07,32,8.10
2010,06,02,07,33,9.60
2010,06,02,07,34,6.40
2010,06,02,07,35,8.10
2010,06,02,07,36,6.40
2010,06,02,07,37,9.60
2010,06,02,07,38,4.80
2010,06,02,07,39,4.80
2010,06,02,07,40,8.10
2010,06,02,07,41,14.50
2010,06,02,07,42,12.90
2010,06,02,07,43,11.30
2010,06,02,07,44,11.30
2010,06,02,07,45,16.10
2010,06,02,07,46,16.10
2010,06,02,07,47,22.50
2010,06,02,07,48,17.70
2010,06,02,07,49,16.10
2010,06,02,07,50,19.30
2010,06,02,07,51,16.10
2010,06,02,07,52,20.90
2010,06,02,07,53,16.10
2010,06,02,07,54,20.90
2010,06,02,07,55,16.10
2010,06,02,07,56,14.50
2010,06,02,07,57,19.30
2010,06,02,07,58,8.10
2010,06,02,07,59,19.30
2010,06,02,08,00,19.30
2010,06,02,08,01,17.70
2010,06,02,08,02,11.30
2010,06,02,08,03,20.90
2010,06,02,08,04,22.50
2010,06,02,08,05,25.70
2010,06,02,08,06,22.50
2010,06,02,08,07,25.70
2010,06,02,08,08,20.90
2010,06,02,08,09,14.50
2010,06,02,08,10,14.50
2010,06,02,08,11,17.70
2010,06,02,08,12,14.50
2010,06,02,08,13,19.30
2010,06,02,08,14,17.70
2010,06,02,08,15,17.70
2010,06,02,08,16,16.10
2010,06,02,08,17,17.70
2010,06,02,08,18,14.50
2010,06,02,08,19,9.60
2010,06,02,08,20,12.90
2010,06,02,08,21,9.60
2010,06,02,08,22,8.10
2010,06,02,08,23,17.70
2010,06,02,08,24,14.50
2010,06,02,08,25,12.90
2010,06,02,08,26,16.10
2010,06,02,08,27,14.50
2010,06,02,08,28,17.70
2010,06,02,08,29,11.30
2010,06,02,08,30,17.70
2010,06,02,08,31,14.50
2010,06,02,08,32,14.50
2010,06,02,08,33,16.10
2010,06,02,08,34,16.10
2010,06,02,08,35,17.70
2010,06,02,08,36,12.90
2010,06,02,08,37,11.30
2010,06,02,08,38,11.30
2010,06,02,08,39,12.90
2010,06,02,08,40,8.10
2010,06,02,08,41,9.60
2010,06,02,08,42,9.60
2010,06,02,08,43,6.40
2010,06,02,08,44,3.20
2010,06,02,08,45,3.20
2010,06,02,08,46,8.10
2010,06,02,08,47,6.40
2010,06,02,08,48,0.00
2010,06,02,08,49,4.80
2010,06,02,08,50,4.80
2010,06,02,08,51,4.80
2010,06,02,08,52,17.70
2010,06,02,08,53,14.50
2010,06,02,08,54,12.90
2010,06,02,08,55,8.10
2010,06,02,08,56,9.60
2010,06,02,08,57,11.30
2010,06,02,08,58,8.10
2010,06,02,08,59,14.50
2010,06,02,09,00,14.50
2010,06,02,09,01,8.10
2010,06,02,09,02,11.30
2010,06,02,09,03,16.10
2010,06,02,09,04,12.90
2010,06,02,09,05,11.30
2010,06,02,09,06,6.40
2010,06,02,09,07,4.80
2010,06,02,09,08,6.40
2010,06,02,09,09,8.10
2010,06,02,09,10,8.10
2010,06,02,09,11,6.40
2010,06,02,09,12,11.30
2010,06,02,09,13,11.30
2010,06,02,09,14,11.30
2010,06,02,09,15,8.10
2010,06,02,09,16,9.60
2010,06,02,09,17,6.40
2010,06,02,09,18,8.10
2010,06,02,09,19,8.10
2010,06,02,09,20,6.40
2010,06,02,09,21,6.40
2010,06,02,09,22,6.40
2010,06,02,09,23,11.30
2010,06,02,09,24,11.30
2010,06,02,09,25,16.10
2010,06,02,09,26,11.30
2010,06,02,09,27,14.50
2010,06,02,09,28,8.10
2010,06,02,09,29,6.40
2010,06,02,09,30,9.60
2010,06,02,09,31,9.60
2010,06,02,09,32,14.50
2010,06,02,09,33,11.30
2010,06,02,09,34,9.60
2010,06,02,09,35,16.10
2010,06,02,09,36,12.90
2010,06,02,09,37,9.60
2010,06,02,09,38,6.40
2010,06,02,09,39,9.60
2010,06,02,09,40,9.60
2010,06,02,09,41,12.90
2010,06,02,09,42,9.60
2010,06,02,09,43,11.30
2010,06,02,09,44,14.50
2010,06,02,09,45,14.50
2010,06,02,09,46,11.30
2010,06,02,09,47,11.30
2010,06,02,09,48,9.60
2010,06,02,09,49,6.40
2010,06,02,09,50,9.60
2010,06,02,09,51,6.40
2010,06,02,09,52,6.40
2010,06,02,09,53,14.50
2010,06,02,09,54,12.90
2010,06,02,09,55,9.60
2010,06,02,09,56,8.10
2010,06,02,09,57,8.10
2010,06,02,09,58,6.40
2010,06,02,09,59,4.80
2010,06,02,10,00,8.10
2010,06,02,10,01,3.20
2010,06,02,10,02,9.60
2010,06,02,10,03,9.60
2010,06,02,10,04,9.60
2010,06,02,10,05,8.10
2010,06,02,10,06,9.60
2010,06,02,10,07,11.30
2010,06,02,10,08,14.50
2010,06,02,10,09,8.10
2010,06,02,10,10,3.20
2010,06,02,10,11,9.60
2010,06,02,10,12,8.10
2010,06,02,10,13,6.40
2010,06,02,10,14,9.60
2010,06,02,10,15,9.60
2010,06,02,10,16,9.60
2010,06,02,10,17,11.30
2010,06,02,10,18,9.60
2010,06,02,10,19,1.60
2010,06,02,10,20,4.80
2010,06,02,10,21,8.10
2010,06,02,10,22,6.40
2010,06,02,10,23,6.40
2010,06,02,10,24,8.10
2010,06,02,10,25,8.10
2010,06,02,10,26,6.40
2010,06,02,10,27,4.80
2010,06,02,10,28,4.80
2010,06,02,10,29,0.00
2010,06,02,10,30,4.80
2010,06,02,10,31,3.20
2010,06,02,10,32,1.60
2010,06,02,10,33,6.40
2010,06,02,10,34,4.80
2010,06,02,10,35,3.20
2010,06,02,10,36,4.80
2010,06,02,10,37,3.20
2010,06,02,10,38,3.20
2010,06,02,10,39,3.20
2010,06,02,10,40,1.60
2010,06,02,10,41,3.20
2010,06,02,10,42,0.00
2010,06,02,10,43,0.00
2010,06,02,10,44,3.20
2010,06,02,10,45,4.80
2010,06,02,10,46,3.20
2010,06,02,10,47,3.20
2010,06,02,10,48,1.60
2010,06,02,10,49,3.20
2010,06,02,10,50,0.00
2010,06,02,10,51,0.00
2010,06,02,10,52,0.00
2010,06,02,10,53,0.00
2010,06,02,10,54,3.20
2010,06,02,10,55,1.60
2010,06,02,10,56,1.60
2010,06,02,10,57,1.60
2010,06,02,10,58,3.20
2010,06,02,10,59,3.20
2010,06,02,11,00,1.60
2010,06,02,11,01,3.20
2010,06,02,11,02,1.60
2010,06,02,11,03,1.60
2010,06,02,11,04,6.40
2010,06,02,11,05,4.80
2010,06,02,11,06,4.80
2010,06,02,11,07,1.60
2010,06,02,11,08,0.00
2010,06,02,11,09,4.80
2010,06,02,11,10,4.80
2010,06,02,11,11,1.60
2010,06,02,11,12,1.60
2010,06,02,11,13,1.60
2010,06,02,11,14,3.20
2010,06,02,11,15,3.20
2010,06,02,11,16,3.20
2010,06,02,11,17,1.60
2010,06,02,11,18,4.80
2010,06,02,11,19,4.80
2010,06,02,11,20,1.60
2010,06,02,11,21,4.80
2010,06,02,11,22,6.40
2010,06,02,11,23,6.40
2010,06,02,11,24,8.10
2010,06,02,11,25,6.40
2010,06,02,11,26,3.20
2010,06,02,11,27,3.20
2010,06,02,11,28,1.60
2010,06,02,11,29,0.00
2010,06,02,11,30,0.00
2010,06,02,11,31,0.00
2010,06,02,11,32,1.60
2010,06,02,11,33,0.00
2010,06,02,11,34,1.60
2010,06,02,11,35,4.80
2010,06,02,11,36,4.80
2010,06,02,11,37,1.60
2010,06,02,11,38,3.20
2010,06,02,11,39,3.20
2010,06,02,11,40,3.20
2010,06,02,11,41,4.80
2010,06,02,11,42,3.20
2010,06,02,11,43,4.80
2010,06,02,11,44,3.20
2010,06,02,11,45,3.20
2010,06,02,11,46,0.00
2010,06,02,11,47,0.00
2010,06,02,11,48,0.00
2010,06,02,11,49,1.60
2010,06,02,11,50,4.80
2010,06,02,11,51,1.60
2010,06,02,11,52,3.20
2010,06,02,11,53,1.60
2010,06,02,11,54,3.20
2010,06,02,11,55,0.00
2010,06,02,11,56,1.60
2010,06,02,11,57,4.80
2010,06,02,11,58,6.40
2010,06,02,11,59,6.40
2010,06,02,12,00,1.60
2010,06,02,12,01,3.20
2010,06,02,12,02,3.20
2010,06,02,12,03,3.20
2010,06,02,12,04,1.60
2010,06,02,12,05,1.60
2010,06,02,12,06,0.00
2010,06,02,12,07,0.00
2010,06,02,12,08,0.00
2010,06,02,12,09,0.00
2010,06,02,12,10,0.00
2010,06,02,12,11,0.00
2010,06,02,12,12,0.00
2010,06,02,12,13,0.00
2010,06,02,12,14,0.00
2010,06,02,12,15,0.00
2010,06,02,12,16,0.00
2010,06,02,12,17,0.00
2010,06,02,12,18,0.00
2010,06,02,12,19,0.00
2010,06,02,12,20,0.00
2010,06,02,12,21,0.00
2010,06,02,12,22,0.00
2010,06,02,12,23,0.00
2010,06,02,12,24,0.00
2010,06,02,12,25,0.00
2010,06,02,12,26,1.60
2010,06,02,12,27,0.00
2010,06,02,12,28,0.00
2010,06,02,12,29,0.00
2010,06,02,12,30,1.60
2010,06,02,12,31,1.60
2010,06,02,12,32,3.20
2010,06,02,12,33,3.20
2010,06,02,12,34,3.20
2010,06,02,12,35,4.80
2010,06,02,12,36,6.40
2010,06,02,12,37,6.40
2010,06,02,12,38,8.10
2010,06,02,12,39,11.30
2010,06,02,12,40,11.30
2010,06,02,12,41,12.90
2010,06,02,12,42,11.30
2010,06,02,12,43,8.10
2010,06,02,12,44,9.60
2010,06,02,12,45,16.10
2010,06,02,12,46,14.50
2010,06,02,12,47,6.40
2010,06,02,12,48,14.50
2010,06,02,12,49,11.30
2010,06,02,12,50,16.10
2010,06,02,12,51,14.50
2010,06,02,12,52,17.70
2010,06,02,12,53,9.60
2010,06,02,12,54,9.60
2010,06,02,12,55,16.10
2010,06,02,12,56,9.60
2010,06,02,12,57,9.60
2010,06,02,12,58,14.50
2010,06,02,12,59,9.60
2010,06,02,13,00,16.10
2010,06,02,13,01,14.50
2010,06,02,13,02,14.50
2010,06,02,13,03,11.30
2010,06,02,13,04,17.70
2010,06,02,13,05,11.30
2010,06,02,13,06,9.60
2010,06,02,13,07,14.50
2010,06,02,13,08,17.70
2010,06,02,13,09,11.30
2010,06,02,13,10,11.30
2010,06,02,13,11,14.50
2010,06,02,13,12,16.10
2010,06,02,13,13,16.10
2010,06,02,13,14,17.70
2010,06,02,13,15,17.70
2010,06,02,13,16,25.70
2010,06,02,13,17,16.10
2010,06,02,13,18,25.70
2010,06,02,13,19,17.70
2010,06,02,13,20,9.60
2010,06,02,13,21,25.70
2010,06,02,13,22,17.70
2010,06,02,13,23,14.50
2010,06,02,13,24,14.50
2010,06,02,13,25,9.60
2010,06,02,13,26,11.30
2010,06,02,13,27,9.60
2010,06,02,13,28,16.10
2010,06,02,13,29,19.30
2010,06,02,13,30,19.30
2010,06,02,13,31,9.60
2010,06,02,13,32,11.30
2010,06,02,13,33,17.70
2010,06,02,13,34,16.10
2010,06,02,13,35,11.30
2010,06,02,13,36,9.60
2010,06,02,13,37,16.10
2010,06,02,13,38,16.10
2010,06,02,13,39,16.10
2010,06,02,13,40,4.80
2010,06,02,13,41,6.40
2010,06,02,13,42,4.80
2010,06,02,13,43,11.30
2010,06,02,13,44,12.90
2010,06,02,13,45,12.90
2010,06,02,13,46,14.50
2010,06,02,13,47,20.90
2010,06,02,13,48,11.30
2010,06,02,13,49,16.10
2010,06,02,13,50,22.50
2010,06,02,13,51,19.30
2010,06,02,13,52,11.30
2010,06,02,13,53,19.30
2010,06,02,13,54,14.50
2010,06,02,13,55,16.10
2010,06,02,13,56,16.10
2010,06,02,13,57,25.70
2010,06,02,13,58,25.70
2010,06,02,13,59,14.50
2010,06,02,14,00,12.90
2010,06,02,14,01,9.60
2010,06,02,14,02,20.90
2010,06,02,14,03,17.70
2010,06,02,14,04,17.70
2010,06,02,14,05,16.10
2010,06,02,14,06,9.60
2010,06,02,14,07,14.50
2010,06,02,14,08,8.10
2010,06,02,14,09,19.30
2010,06,02,14,10,9.60
2010,06,02,14,11,16.10
2010,06,02,14,12,20.90
2010,06,02,14,13,22.50
2010,06,02,14,14,17.70
2010,06,02,14,15,14.50
2010,06,02,14,16,12.90
2010,06,02,14,17,11.30
2010,06,02,14,18,11.30
2010,06,02,14,19,11.30
2010,06,02,14,20,17.70
2010,06,02,14,21,19.30
2010,06,02,14,22,9.60
2010,06,02,14,23,16.10
2010,06,02,14,24,22.50
2010,06,02,14,25,16.10
2010,06,02,14,26,22.50
2010,06,02,14,27,20.90
2010,06,02,14,28,25.70
2010,06,02,14,29,25.70
2010,06,02,14,30,17.70
2010,06,02,14,31,17.70
2010,06,02,14,32,29.00
2010,06,02,14,33,25.70
2010,06,02,14,34,30.60
2010,06,02,14,35,17.70
2010,06,02,14,36,27.40
2010,06,02,14,37,22.50
2010,06,02,14,38,24.20
2010,06,02,14,39,24.20
2010,06,02,14,40,24.20
2010,06,02,14,41,25.70
2010,06,02,14,42,27.40
2010,06,02,14,43,20.90
2010,06,02,14,44,20.90
2010,06,02,14,45,19.30
2010,06,02,14,46,30.60
2010,06,02,14,47,30.60
2010,06,02,14,48,30.60
2010,06,02,14,49,33.80
2010,06,02,14,50,22.50
2010,06,02,14,51,25.70
2010,06,02,14,52,27.40
2010,06,02,14,53,25.70
2010,06,02,14,54,17.70
2010,06,02,14,55,27.40
2010,06,02,14,56,22.50
2010,06,02,14,57,22.50
2010,06,02,14,58,22.50
2010,06,02,14,59,27.40
2010,06,02,15,00,27.40
2010,06,02,15,01,35.40
2010,06,02,15,02,24.20
2010,06,02,15,03,29.00
2010,06,02,15,04,29.00
2010,06,02,15,05,35.40
2010,06,02,15,06,29.00
2010,06,02,15,07,20.90
2010,06,02,15,08,33.80
2010,06,02,15,09,25.70
2010,06,02,15,10,25.70
2010,06,02,15,11,38.60
2010,06,02,15,12,27.40
2010,06,02,15,13,38.60
2010,06,02,15,14,38.60
2010,06,02,15,15,32.20
2010,06,02,15,16,19.30
2010,06,02,15,17,27.40
2010,06,02,15,18,27.40
2010,06,02,15,19,53.10
2010,06,02,15,20,29.00
2010,06,02,15,21,29.00
2010,06,02,15,22,30.60
2010,06,02,15,23,22.50
2010,06,02,15,24,16.10
2010,06,02,15,25,20.90
2010,06,02,15,26,29.00
2010,06,02,15,27,29.00
2010,06,02,15,28,41.80
2010,06,02,15,29,46.70
2010,06,02,15,30,27.40
2010,06,02,15,31,20.90
2010,06,02,15,32,35.40
2010,06,02,15,33,29.00
2010,06,02,15,34,32.20
2010,06,02,15,35,32.20
2010,06,02,15,36,30.60
2010,06,02,15,37,38.60
2010,06,02,15,38,29.00
2010,06,02,15,39,29.00
2010,06,02,15,40,30.60
2010,06,02,15,41,24.20
2010,06,02,15,42,19.30
2010,06,02,15,43,19.30
2010,06,02,15,44,24.20
2010,06,02,15,45,27.40
2010,06,02,15,46,29.00
2010,06,02,15,47,38.60
2010,06,02,15,48,43.50
2010,06,02,15,49,38.60
2010,06,02,15,50,29.00
2010,06,02,15,51,29.00
2010,06,02,15,52,22.50
2010,06,02,15,53,24.20
2010,06,02,15,54,19.30
2010,06,02,15,55,35.40
2010,06,02,15,56,35.40
2010,06,02,15,57,32.20
2010,06,02,15,58,35.40
2010,06,02,15,59,30.60
2010,06,02,16,00,35.40
2010,06,02,16,01,32.20
2010,06,02,16,02,30.60
2010,06,02,16,03,25.70
2010,06,02,16,04,22.50
2010,06,02,16,05,22.50
2010,06,02,16,06,24.20
2010,06,02,16,07,27.40
2010,06,02,16,08,37.00
2010,06,02,16,09,27.40
2010,06,02,16,10,25.70
2010,06,02,16,11,25.70
2010,06,02,16,12,37.00
2010,06,02,16,13,29.00
2010,06,02,16,14,53.10
2010,06,02,16,15,32.20
2010,06,02,16,16,38.60
2010,06,02,16,17,27.40
2010,06,02,16,18,29.00
2010,06,02,16,19,35.40
2010,06,02,16,20,33.80
2010,06,02,16,21,25.70
2010,06,02,16,22,33.80
2010,06,02,16,23,37.00
2010,06,02,16,24,30.60
2010,06,02,16,25,32.20
2010,06,02,16,26,19.30
2010,06,02,16,27,35.40
2010,06,02,16,28,24.20
2010,06,02,16,29,20.90
2010,06,02,16,30,41.80
2010,06,02,16,31,35.40
2010,06,02,16,32,27.40
2010,06,02,16,33,25.70
2010,06,02,16,34,30.60
2010,06,02,16,35,16.10
2010,06,02,16,36,25.70
2010,06,02,16,37,29.00
2010,06,02,16,38,33.80
2010,06,02,16,39,27.40
2010,06,02,16,40,20.90
2010,06,02,16,41,24.20
2010,06,02,16,42,45.10
2010,06,02,16,43,24.20
2010,06,02,16,44,22.50
2010,06,02,16,45,27.40
2010,06,02,16,46,27.40
2010,06,02,16,47,29.00
2010,06,02,16,48,29.00
2010,06,02,16,49,32.20
2010,06,02,16,50,33.80
2010,06,02,16,51,24.20
2010,06,02,16,52,40.20
2010,06,02,16,53,40.20
2010,06,02,16,54,40.20
2010,06,02,16,55,41.80
2010,06,02,16,56,41.80
2010,06,02,16,57,48.30
2010,06,02,16,58,38.60
2010,06,02,16,59,41.80
2010,06,02,17,00,35.40
2010,06,02,17,01,46.70
2010,06,02,17,02,38.60
2010,06,02,17,03,29.00
2010,06,02,17,04,35.40
2010,06,02,17,05,46.70
2010,06,02,17,06,48.30
2010,06,02,17,07,48.30
2010,06,02,17,08,40.20
2010,06,02,17,09,37.00
2010,06,02,17,10,37.00
2010,06,02,17,11,46.70
2010,06,02,17,12,40.20
2010,06,02,17,13,37.00
2010,06,02,17,14,37.00
2010,06,02,17,15,29.00
2010,06,02,17,16,48.30
2010,06,02,17,17,32.20
2010,06,02,17,18,40.20
2010,06,02,17,19,33.80
2010,06,02,17,20,24.20
2010,06,02,17,21,38.60
2010,06,02,17,22,29.00
2010,06,02,17,23,30.60
2010,06,02,17,24,30.60
2010,06,02,17,25,20.90
2010,06,02,17,26,29.00
2010,06,02,17,27,22.50
2010,06,02,17,28,38.60
2010,06,02,17,29,41.80
2010,06,02,17,30,33.80
2010,06,02,17,31,27.40